Change the Weather History Date:

Monday, September 2, 2013

  Actual Average (KFWA) Record (KFWA)
Temperature  
Mean Temperature 70 °F 69 °F  
Max Temperature 82 °F 81 °F 100 °F (1953)
Min Temperature 59 °F 58 °F 39 °F (1909)
Degree Days  
Heating Degree Days 0 1  
Month to date heating degree days 2  
Since 1 July heating degree days 14  
Cooling Degree Days 6 5  
Month to date cooling degree days 10  
Year to date cooling degree days 727  
Growing Degree Days 20 (Base 50)    
Moisture  
Dew Point 59 °F    
Average Humidity 68    
Maximum Humidity 94    
Minimum Humidity 32    
Precipitation  
Precipitation 0.00 in 0.11 in 0.85 in (1984)
Month to date precipitation 0.21  
Year to date precipitation 27.05  
Snow  
Snow 0.00 in 0.00 in 0.00 in (2002)
Month to date snowfall 0.0  
Since 1 July snowfall 0.0  
Since 1 September snowfall 0.0  
Snow Depth -    
Sea Level Pressure  
Sea Level Pressure 29.86 in    
Wind  
Wind Speed 5 mph (NW)    
Max Wind Speed 17 mph    
Max Gust Speed 25 mph    
T = Trace of Precipitation, MM = Missing Value Source: NWS Daily Summary

Daily Weather History Graph

Daily Weather History Graph

Search for Another Location

Airport or City:

Trip Planner

Search our weather history database for the weather conditions in past years. The results will help you decide how hot, cold, wet, or windy it might be!

Date:

Astronomy

Sep. 02, 2013 Rise Set
Actual Time 7:07 AM EDT 8:11 PM EDT
Civil Twilight 6:39 AM EDT 8:39 PM EDT
Nautical Twilight 6:05 AM EDT 9:12 PM EDT
Astronomical Twilight 5:30 AM EDT 9:48 PM EDT
Moon 4:23 AM EDT (9/2) 6:24 PM EDT (9/2)
Length of Visible Light 13h 59m
Length of Day
13h 03m
Waning Crescent, 8% of the Moon is Illuminated
Sep 2
Waning Crescent
Sep 5
New
Sep 12
First Quarter
Sep 19
Full
Sep 26
Last Quarter

Hourly Weather History & Observations

Time (EDT) Temp. Heat Index Dew Point Humidity Pressure Visibility Wind Dir Wind Speed Gust Speed Precip Events Conditions
12:15 AM 69.8 °F - 66.2 °F 88% 29.82 in - NW 3.5 mph - N/A   Unknown
12:35 AM 69.8 °F - 66.2 °F 88% 29.81 in - Calm Calm - N/A   Unknown
12:55 AM 69.8 °F - 66.2 °F 88% 29.79 in - Calm Calm - N/A   Unknown
1:15 AM 68.0 °F - 64.4 °F 88% 29.79 in - Calm Calm - N/A   Unknown
1:35 AM 68.0 °F - 64.4 °F 88% 29.80 in - West 3.5 mph - N/A   Unknown
1:55 AM 68.0 °F - 66.2 °F 94% 29.80 in - Calm Calm - N/A   Unknown
2:15 AM 68.0 °F - 66.2 °F 94% 29.79 in - Calm Calm - N/A   Unknown
2:35 AM 68.0 °F - 64.4 °F 88% 29.79 in - Calm Calm - N/A   Unknown
2:55 AM 68.0 °F - 66.2 °F 94% 29.80 in - West 3.5 mph - N/A   Unknown
3:15 AM 68.0 °F - 66.2 °F 94% 29.79 in - SW 3.5 mph - N/A   Unknown
3:35 AM 68.0 °F - 66.2 °F 94% 29.79 in - SW 3.5 mph - N/A   Unknown
3:55 AM 68.0 °F - 66.2 °F 94% 29.79 in - SSW 3.5 mph - N/A   Unknown
4:15 AM 68.0 °F - 66.2 °F 94% 29.78 in - Calm Calm - N/A   Unknown
4:35 AM 68.0 °F - 64.4 °F 88% 29.78 in - Calm Calm - N/A   Unknown
4:55 AM 68.0 °F - 64.4 °F 88% 29.78 in - Calm Calm - N/A   Overcast
5:15 AM 68.0 °F - 64.4 °F 88% 29.80 in - SW 3.5 mph - N/A   Overcast
5:35 AM 68.0 °F - 66.2 °F 94% 29.79 in - WSW 3.5 mph - N/A   Overcast
5:55 AM 68.0 °F - 66.2 °F 94% 29.79 in - Calm Calm - N/A   Overcast
6:15 AM 68.0 °F - 66.2 °F 94% 29.80 in - Calm Calm - N/A   Overcast
6:35 AM 69.8 °F - 66.2 °F 88% 29.80 in - Calm Calm - N/A   Overcast
6:55 AM 68.0 °F - 66.2 °F 94% 29.80 in - Calm Calm - N/A   Unknown
7:15 AM 68.0 °F - 64.4 °F 88% 29.82 in - West 3.5 mph - N/A   Unknown
7:35 AM 68.0 °F - 66.2 °F 94% 29.82 in - WNW 3.5 mph - N/A   Mostly Cloudy
7:55 AM 69.8 °F - 68.0 °F 94% 29.83 in - NW 5.8 mph - N/A   Overcast
8:15 AM 69.8 °F - 68.0 °F 94% 29.84 in - NW 5.8 mph - N/A   Overcast
8:35 AM 69.8 °F - 66.2 °F 88% 29.84 in - NNW 6.9 mph - N/A   Overcast
8:55 AM 69.8 °F - 66.2 °F 88% 29.85 in - NW 8.1 mph - N/A   Overcast
9:15 AM 69.8 °F - 66.2 °F 88% 29.85 in - NNW 8.1 mph - N/A   Mostly Cloudy
9:35 AM 69.8 °F - 64.4 °F 83% 29.86 in - NNW 8.1 mph - N/A   Overcast
9:55 AM 69.8 °F - 64.4 °F 83% 29.86 in - NW 9.2 mph 16.1 mph N/A   Overcast
10:15 AM 71.6 °F - 62.6 °F 73% 29.87 in - NNW 9.2 mph - N/A   Scattered Clouds
10:35 AM 73.4 °F - 62.6 °F 69% 29.88 in - NNW 6.9 mph - N/A   Scattered Clouds
10:55 AM 75.2 °F - 60.8 °F 61% 29.88 in - NW 10.4 mph - N/A   Scattered Clouds
11:15 AM 77.0 °F - 59.0 °F 54% 29.89 in - North 11.5 mph - N/A   Clear
11:35 AM 77.0 °F - 57.2 °F 50% 29.89 in - North 12.7 mph - N/A   Clear
11:55 AM 77.0 °F - 55.4 °F 47% 29.90 in - NNW 10.4 mph 17.3 mph N/A   Clear
12:15 PM 78.8 °F - 55.4 °F 44% 29.89 in - North 9.2 mph 17.3 mph N/A   Clear
12:35 PM 78.8 °F - 55.4 °F 44% 29.89 in - NNW 10.4 mph - N/A   Clear
12:55 PM 78.8 °F - 55.4 °F 44% 29.89 in - NNW 8.1 mph - N/A   Clear
1:15 PM 78.8 °F - 55.4 °F 44% 29.89 in - NW 12.7 mph - N/A   Clear
1:35 PM 78.8 °F - 53.6 °F 42% 29.90 in - WNW 11.5 mph 18.4 mph N/A   Clear
1:55 PM 78.8 °F - 53.6 °F 42% 29.89 in - NW 9.2 mph 17.3 mph N/A   Scattered Clouds
2:15 PM 80.6 °F 80.3 °F 53.6 °F 39% 29.89 in - WNW 11.5 mph 21.9 mph N/A   Scattered Clouds
2:35 PM 80.6 °F 80.3 °F 53.6 °F 39% 29.89 in - NW 9.2 mph 18.4 mph N/A   Scattered Clouds
2:55 PM 80.6 °F - 51.8 °F 37% 29.88 in - NW 9.2 mph 16.1 mph N/A   Scattered Clouds
3:15 PM 80.6 °F - 51.8 °F 37% 29.88 in - NW 9.2 mph - N/A   Scattered Clouds
3:35 PM 80.6 °F - 51.8 °F 37% 29.88 in - WNW 17.3 mph 25.3 mph N/A   Scattered Clouds
3:55 PM 82.4 °F - 50.0 °F 32% 29.88 in - WNW 12.7 mph 17.3 mph N/A   Scattered Clouds
4:15 PM 80.6 °F - 50.0 °F 34% 29.88 in - NW 11.5 mph 19.6 mph N/A   Scattered Clouds
4:35 PM 80.6 °F - 50.0 °F 34% 29.88 in - NW 15.0 mph 19.6 mph N/A   Clear
4:55 PM 80.6 °F - 50.0 °F 34% 29.88 in - NW 15.0 mph 19.6 mph N/A   Scattered Clouds
5:15 PM 78.8 °F - 51.8 °F 39% 29.87 in - NW 11.5 mph - N/A   Scattered Clouds
5:35 PM 77.0 °F - 51.8 °F 41% 29.88 in - NNW 10.4 mph 18.4 mph N/A   Scattered Clouds
5:55 PM 77.0 °F - 51.8 °F 41% 29.88 in - NW 12.7 mph 17.3 mph N/A   Scattered Clouds
6:15 PM 77.0 °F - 51.8 °F 41% 29.88 in - NW 12.7 mph 20.7 mph N/A   Scattered Clouds
6:35 PM 77.0 °F - 51.8 °F 41% 29.88 in - NW 12.7 mph 19.6 mph N/A   Clear
6:55 PM 75.2 °F - 51.8 °F 44% 29.88 in - NNW 13.8 mph 18.4 mph N/A   Clear
7:15 PM 73.4 °F - 51.8 °F 47% 29.89 in - NNW 11.5 mph 20.7 mph N/A   Clear
7:35 PM 71.6 °F - 51.8 °F 50% 29.89 in - NNW 10.4 mph - N/A   Clear
7:55 PM 69.8 °F - 53.6 °F 56% 29.90 in - NW 12.7 mph 16.1 mph N/A   Clear
8:15 PM 69.8 °F - 53.6 °F 56% 29.90 in - NW 9.2 mph - N/A   Clear
8:35 PM 68.0 °F - 53.6 °F 60% 29.91 in - NNW 10.4 mph - N/A   Clear
8:55 PM 66.2 °F - 53.6 °F 64% 29.92 in - NNW 8.1 mph - N/A   Clear
9:15 PM 64.4 °F - 53.6 °F 68% 29.93 in - NW 5.8 mph - N/A   Clear
9:35 PM 64.4 °F - 53.6 °F 68% 29.93 in - NW 6.9 mph - N/A   Clear
9:55 PM 62.6 °F - 53.6 °F 72% 29.94 in - NW 4.6 mph - N/A   Clear
10:15 PM 62.6 °F - 53.6 °F 72% 29.95 in - NW 4.6 mph - N/A   Clear
10:35 PM 60.8 °F - 53.6 °F 77% 29.95 in - NW 4.6 mph - N/A   Clear
10:55 PM 60.8 °F - 51.8 °F 72% 29.96 in - NNW 4.6 mph - N/A   Clear
11:15 PM 60.8 °F - 51.8 °F 72% 29.97 in - NNW 8.1 mph - N/A   Clear
11:35 PM 59.0 °F - 51.8 °F 77% 29.97 in - NW 5.8 mph - N/A   Clear
11:55 PM 59.0 °F - 51.8 °F 77% 29.97 in - NW 4.6 mph - N/A   Clear